Location: Drocourt
(49.0571°N, 1.7669°E)
Time: 17:55:19
(UTC+00:00)

Cosmos 2219 Rocket - Pass Details

Date: 09 February 2023
Orbit: 826 x 848 km, 71.0° (Epoch: 25 March)

Event Time Altitude Azimuth Distance (km) Brightness Sun altitude
Rises 19:53:23 0° 248° (WSW) 3,363 6.2 -28.3°
Reaches altitude 10° 19:56:15 10° 262° (W) 2,436 5.4 -28.7°
Maximum altitude 20:00:47 25° 317° (NW) 1,634 4.1 -29.4°
Enters shadow 20:05:21 10° 11° (N) 2,452 4.6 -30.2°
